COSMOS 2492 (754)

Last updated on Tue Sep 16 2025 00:03:19 GMT+0000 (Coordinated Universal Time)

1 39620U 14012A 25258.35214775 -.00000057 00000+0 00000+0 0 9995 2 39620 65.4546 323.2696 0011984 308.1779 51.7785 2.13103155 89383
UTC large
Height (km)
Speed (km/s)
/
Latitude / Longitude
Inclination (degrees)
Orbital Period (minutes)
Azimuth
Elevation
Range (km)
Doppler Factor

Next 0 passes for location: London (51.5072 / 0.1276)

Sorry there are no passes over London.